Wind_Speed
14 14 14 15 16 18 19 21 23 24 24 25 26 27 28 28 29 30 31 32 34 35 37 38 38 39 39 40 41 43 44 45 45 45 45 45 44 42 40 37 36 35 34 32
13 13 13 14 15 17 19 20 22 23 23 25 26 27 28 28 29 30 32 33 34 34 36 36 37 37 38 39 40 41 43 44 45 46 46 46 46 45 44 40 37 36 35 36
11 11 12 13 15 16 18 19 20 21 23 23 25 25 26 27 29 30 31 32 33 33 34 34 36 37 38 38 38 39 40 42 43 44 44 45 47 47 46 45 42 39 38 36
9 9 11 12 14 15 16 18 19 20 22 23 24 25 26 27 28 29 30 31 32 33 32 33 33 34 34 34 34 35 35 36 39 41 41 42 43 45 46 47 45 43 41 39
7 8 9 11 12 14 15 17 18 20 21 23 23 25 25 26 27 28 29 30 31 30 30 30 30 29 29 28 29 30 31 32 33 35 37 39 39 41 43 44 44 43 42 40
5 6 7 9 11 13 15 17 18 19 21 22 23 24 25 25 26 26 27 27 28 28 27 27 26 26 26 26 26 26 27 28 29 31 33 34 35 37 38 39 40 40 40 39
3 4 6 8 10 13 15 17 19 21 21 22 23 24 24 24 24 24 24 25 25 25 24 24 23 22 22 22 22 22 22 23 23 25 27 29 29 30 31 33 34 35 35 35
1 3 6 8 11 13 16 18 20 21 22 22 22 22 22 22 22 23 24 24 24 23 22 21 20 20 20 19 19 19 19 18 18 20 21 22 22 23 25 27 29 30 31 31
3 4 6 9 12 14 16 18 20 21 22 21 21 22 21 21 22 22 22 22 22 22 21 20 19 18 17 16 16 16 15 15 14 15 15 15 15 17 20 22 24 27 28 29
4 5 7 10 13 15 17 19 20 21 21 21 21 21 21 21 22 21 20 20 20 20 19 18 18 17 15 14 14 14 13 13 12 12 10 10 10 12 14 16 19 22 24 25
5 6 9 11 14 16 18 19 20 20 21 22 22 21 21 21 21 20 20 19 19 19 17 17 17 17 15 15 14 13 13 11 10 9 7 7 7 8 9 11 14 17 19 21
6 8 10 12 15 16 18 20 20 21 21 22 22 21 21 20 20 20 19 18 18 18 18 18 18 18 17 16 15 15 13 12 10 9 7 5 4 5 6 8 9 12 14 17
7 9 11 13 15 17 19 20 20 21 21 22 22 21 21 19 19 19 18 17 18 17 17 17 18 19 18 17 16 15 14 13 11 9 8 6 5 4 3 4 5 8 9 10
8 10 12 14 16 18 19 20 21 21 22 23 23 21 21 19 19 18 17 17 18 18 18 18 19 19 19 19 18 17 15 13 12 10 9 7 6 4 3 2 3 4 6 7
9 11 12 14 16 18 19 20 21 22 22 23 22 21 20 19 19 18 17 17 18 19 19 19 19 19 19 20 19 18 16 15 14 13 12 10 8 6 6 4 4 4 4 3
9 11 13 15 16 18 19 20 21 22 22 22 21 20 20 19 19 18 18 18 18 19 20 20 20 20 20 20 20 20 18 16 14 13 12 10 9 8 7 6 4 3 3 3
9 11 13 15 16 17 18 20 20 20 21 21 21 21 20 20 20 19 19 19 19 20 20 21 21 21 21 21 21 20 19 18 16 15 14 12 11 10 9 8 7 6 4 3
9 10 12 14 15 16 18 19 19 19 20 20 20 20 20 20 20 19 19 19 19 20 20 21 21 22 22 22 22 22 21 20 18 17 16 15 14 12 11 10 8 6 6 5
8 10 11 13 14 15 17 18 18 18 18 19 19 20 20 19 19 19 19 19 19 20 21 21 22 22 23 23 23 23 22 22 21 19 18 17 16 14 13 12 11 9 8 6
7 9 10 12 13 14 16 16 17 17 17 18 19 19 19 19 19 19 19 19 19 20 21 21 22 22 23 24 24 24 24 23 22 21 20 18 18 16 15 14 12 11 10 8
6 8 9 11 12 13 14 15 16 16 16 16 17 18 18 18 18 18 18 19 19 20 21 21 22 22 23 24 24 24 24 24 23 22 21 21 20 19 17 16 14 13 11 10
6 7 8 10 10 11 12 13 14 15 15 15 15 16 16 17 17 17 17 18 18 19 20 21 21 22 23 23 24 24 24 24 23 22 22 22 21 20 19 18 16 15 13 12
5 6 8 9 9 10 11 12 12 13 13 14 14 14 14 15 15 15 16 16 17 18 19 20 20 21 22 22 23 23 24 24 24 23 23 22 22 21 20 19 18 17 16 14
6 6 7 8 9 9 10 11 11 11 12 12 12 12 13 13 13 14 15 15 16 16 17 18 19 20 21 22 22 22 23 23 23 23 23 23 22 22 21 21 20 19 18 16
7 7 7 8 9 9 10 10 10 11 11 11 11 11 11 11 12 12 13 14 14 15 16 17 18 19 20 20 21 21 22 22 23 22 22 22 22 22 21 21 20 20 19 17
9 8 8 8 9 9 9 10 10 10 10 10 10 9 10 10 10 11 12 12 13 14 15 16 17 17 18 19 20 20 21 21 22 22 22 22 22 22 22 21 21 20 19 18
Wind_Direction
245 257 267 275 281 286 290 293 295 296 296 296 297 297 297 296 295 295 295 294 291 289 287 285 283 282 281 279 276 272 268 265 263 260 258 257 255 253 252 251 252 253 253 253
248 260 271 280 286 291 294 296 297 297 298 298 299 298 298 297 297 297 297 297 294 291 290 288 286 284 283 282 279 274 270 267 265 262 259 256 254 253 252 251 249 250 251 251
252 265 275 284 291 295 298 300 302 302 302 302 302 301 301 300 300 299 299 299 297 294 293 291 288 285 285 285 282 278 274 269 266 264 260 257 254 252 252 251 250 250 252 251
257 270 283 292 298 304 307 309 308 308 307 307 307 305 305 304 303 303 303 301 299 299 297 295 292 290 288 288 285 281 278 274 268 264 261 258 255 253 251 250 251 251 252 251
262 280 292 301 307 311 313 313 313 313 312 312 312 309 309 308 307 307 307 305 304 303 301 299 297 294 292 292 290 286 283 278 271 264 261 258 256 254 252 249 249 250 251 252
267 288 302 310 315 317 319 319 318 318 317 316 316 313 312 311 310 310 311 311 311 309 305 304 301 299 297 297 296 290 287 282 276 270 267 262 258 255 252 249 248 249 250 251
272 305 319 327 329 329 328 327 325 324 323 321 321 318 317 314 315 316 316 316 316 316 315 313 308 305 304 304 302 300 296 289 281 277 272 267 261 256 252 248 247 247 249 250
337 348 346 344 339 337 335 334 332 331 329 327 326 324 323 322 321 322 323 325 325 325 323 323 320 314 311 311 309 309 304 298 291 286 277 269 260 255 249 245 244 245 247 248
47 17 1 352 346 343 341 339 337 336 335 334 334 332 329 327 327 329 332 334 335 333 330 331 332 327 323 321 319 320 317 313 303 296 288 276 264 252 248 244 242 243 245 247
48 19 3 356 351 348 345 344 343 344 344 342 340 339 337 334 334 336 338 338 340 342 343 343 342 339 336 334 332 331 329 325 321 312 298 285 265 250 245 242 240 242 243 243
38 16 6 360 355 352 351 349 349 348 348 346 345 344 343 342 341 341 343 344 348 353 357 359 360 359 355 350 346 344 341 337 334 331 318 299 280 259 248 243 240 241 243 245
32 13 4 360 358 358 356 354 354 354 352 350 348 349 349 349 348 349 351 354 359 2 6 8 9 8 6 3 1 359 357 353 349 349 347 333 311 282 264 252 247 244 244 245
24 13 6 4 3 1 359 358 358 357 356 355 356 356 355 355 355 358 2 7 10 10 11 12 13 14 13 11 9 8 8 8 7 5 4 360 350 329 298 261 253 247 249 253
18 11 7 6 5 4 3 3 1 -0 0 360 2 3 4 4 6 8 12 14 17 19 18 16 15 15 15 16 14 12 13 15 17 16 13 9 2 356 337 310 281 263 256 252
16 11 8 7 7 7 7 6 5 5 6 6 8 11 13 15 17 18 20 21 23 22 20 17 16 16 16 15 15 15 14 14 14 17 19 17 13 10 2 354 332 314 306 286
15 13 10 10 10 10 11 10 10 11 12 13 14 17 20 22 23 24 26 27 26 24 24 23 23 22 21 19 19 19 19 18 18 17 16 14 10 6 4 4 360 346 323 311
13 13 12 12 12 12 14 13 14 16 18 19 21 23 26 27 28 28 30 30 28 27 28 28 28 28 27 25 24 23 24 25 24 22 20 20 18 15 11 6 8 16 7 345
10 12 13 13 14 15 16 17 18 20 22 24 26 28 30 30 31 32 34 33 31 30 30 31 31 31 30 29 28 28 28 29 29 29 29 28 26 24 22 21 17 12 4 350
6 10 11 13 15 17 18 20 21 23 26 27 30 31 33 34 36 37 38 36 34 34 34 35 35 35 34 33 32 31 31 32 34 34 32 31 28 26 25 23 20 14 4 352
4 8 10 12 14 16 19 21 23 25 28 28 30 33 35 36 39 39 39 39 37 36 36 36 35 35 34 34 34 34 33 33 34 34 33 33 31 28 26 24 20 16 9 0
358 4 7 9 11 14 17 20 22 25 27 28 30 32 35 37 40 40 41 41 39 37 36 35 35 34 34 33 33 33 33 34 35 35 35 34 33 31 29 27 22 18 15 12
349 357 1 3 5 9 13 17 20 23 25 27 29 30 33 36 38 39 40 39 39 37 36 36 35 35 34 33 33 33 33 34 34 35 35 34 33 31 30 29 27 26 24 22
331 344 350 355 359 3 8 12 15 18 21 23 26 28 31 34 36 37 37 37 37 37 37 36 35 34 33 33 33 34 34 34 34 35 35 34 33 32 32 32 32 32 31 29
308 324 335 343 350 355 0 4 8 11 14 17 20 23 26 29 32 33 33 33 34 35 34 34 33 32 32 32 33 33 33 33 33 33 34 34 33 32 32 33 33 33 33 33
291 306 317 327 336 343 349 354 359 3 5 8 12 17 20 23 26 28 28 29 29 29 30 30 30 30 30 30 30 31 31 31 31 32 33 33 33 33 33 33 33 34 35 37
279 290 301 311 321 330 337 342 345 350 355 359 1 5 11 15 18 21 23 24 24 24 25 26 26 27 27 28 28 29 30 30 30 31 32 32 33 33 34 34 36 38 40 41
Height
5902 5903 5902 5902 5901 5900 5898 5897 5895 5892 5890 5887 5884 5881 5878 5875 5872 5869 5866 5862 5859 5855 5852 5849 5846 5844 5842 5839 5838 5837 5836 5837 5838 5839 5840 5842 5844 5846 5848 5849 5850 5851 5852 5854
5901 5901 5901 5900 5899 5897 5895 5893 5891 5888 5885 5882 5879 5876 5873 5869 5866 5862 5858 5854 5851 5847 5843 5840 5837 5834 5831 5829 5826 5824 5824 5824 5825 5826 5828 5830 5832 5835 5838 5840 5841 5842 5843 5845
5898 5899 5898 5898 5896 5894 5892 5890 5887 5884 5881 5877 5874 5871 5867 5863 5859 5855 5851 5847 5843 5839 5835 5831 5828 5824 5821 5818 5815 5813 5812 5811 5812 5813 5815 5818 5820 5824 5827 5830 5832 5834 5835 5837
5897 5897 5896 5895 5894 5891 5889 5886 5883 5880 5876 5873 5870 5866 5862 5857 5853 5849 5845 5840 5836 5831 5827 5823 5819 5815 5812 5809 5805 5803 5801 5800 5800 5801 5803 5806 5808 5812 5815 5818 5821 5825 5828 5830
5895 5895 5894 5893 5891 5889 5886 5883 5880 5876 5873 5869 5865 5861 5858 5852 5848 5844 5839 5834 5829 5825 5820 5816 5811 5808 5804 5801 5798 5795 5792 5791 5790 5791 5792 5794 5797 5800 5803 5807 5811 5815 5818 5821
5894 5893 5893 5891 5889 5886 5884 5881 5877 5873 5869 5865 5861 5857 5852 5848 5843 5839 5834 5829 5823 5819 5814 5809 5805 5801 5798 5794 5791 5788 5785 5783 5782 5782 5783 5784 5786 5789 5792 5796 5800 5805 5809 5812
5893 5893 5891 5889 5887 5885 5882 5879 5875 5870 5866 5862 5857 5852 5848 5843 5838 5834 5829 5824 5819 5814 5809 5804 5800 5796 5793 5789 5786 5782 5779 5777 5776 5775 5775 5775 5777 5779 5783 5786 5791 5795 5799 5803
5892 5892 5890 5888 5886 5883 5880 5877 5873 5868 5862 5858 5853 5848 5845 5839 5834 5829 5824 5819 5814 5809 5805 5801 5796 5792 5789 5786 5782 5779 5775 5773 5771 5770 5769 5769 5770 5772 5775 5778 5783 5786 5790 5794
5892 5891 5889 5887 5885 5882 5878 5874 5870 5865 5859 5855 5850 5845 5840 5835 5831 5826 5821 5816 5811 5807 5802 5798 5794 5789 5786 5783 5779 5776 5773 5770 5768 5766 5765 5764 5765 5766 5769 5772 5775 5779 5782 5786
5892 5891 5889 5887 5885 5881 5877 5873 5868 5862 5857 5852 5848 5843 5838 5833 5828 5823 5819 5814 5810 5805 5800 5796 5792 5788 5784 5781 5778 5774 5771 5768 5766 5764 5762 5762 5762 5763 5765 5767 5769 5772 5775 5778
5892 5891 5890 5887 5883 5880 5876 5871 5866 5861 5856 5851 5846 5844 5836 5831 5826 5821 5817 5812 5808 5804 5799 5795 5791 5787 5783 5780 5777 5774 5770 5768 5766 5764 5762 5761 5761 5761 5762 5764 5765 5768 5770 5773
5892 5891 5889 5886 5883 5879 5875 5870 5865 5861 5855 5850 5845 5843 5835 5830 5825 5820 5816 5811 5808 5803 5800 5796 5792 5788 5784 5780 5777 5773 5770 5768 5766 5764 5762 5760 5760 5760 5761 5761 5763 5764 5766 5768
5893 5891 5889 5886 5884 5880 5874 5869 5865 5860 5855 5849 5844 5842 5834 5829 5824 5820 5815 5811 5808 5804 5801 5797 5793 5789 5785 5781 5778 5774 5771 5769 5767 5764 5763 5761 5760 5760 5760 5760 5761 5762 5763 5764
5893 5891 5889 5887 5883 5878 5874 5869 5865 5860 5855 5849 5844 5840 5834 5829 5824 5820 5816 5813 5809 5806 5802 5798 5795 5791 5787 5783 5779 5776 5773 5770 5768 5766 5764 5762 5761 5760 5760 5760 5760 5760 5761 5762
5893 5891 5888 5885 5882 5878 5874 5870 5865 5860 5855 5850 5845 5840 5835 5831 5826 5822 5818 5815 5811 5808 5804 5800 5796 5793 5789 5785 5781 5778 5774 5772 5769 5767 5765 5763 5762 5761 5760 5760 5759 5759 5759 5760
5893 5891 5888 5885 5882 5878 5875 5871 5866 5861 5856 5851 5846 5842 5837 5833 5828 5824 5821 5817 5814 5810 5806 5802 5798 5795 5791 5787 5783 5780 5776 5773 5771 5768 5766 5765 5763 5762 5761 5760 5759 5759 5759 5759
5892 5891 5888 5886 5882 5879 5876 5872 5867 5863 5858 5853 5849 5845 5839 5835 5831 5827 5823 5820 5816 5813 5809 5805 5801 5797 5794 5790 5786 5782 5779 5775 5773 5770 5768 5766 5764 5763 5761 5761 5760 5759 5759 5759
5893 5891 5888 5886 5884 5880 5879 5873 5869 5865 5860 5856 5851 5847 5842 5838 5834 5830 5826 5823 5819 5816 5812 5808 5804 5801 5797 5793 5789 5785 5782 5778 5775 5772 5770 5767 5766 5764 5763 5761 5760 5760 5759 5759
5892 5891 5889 5886 5884 5881 5878 5874 5870 5867 5863 5859 5854 5850 5845 5841 5837 5833 5830 5826 5823 5819 5816 5812 5808 5805 5801 5797 5793 5789 5785 5782 5778 5775 5772 5770 5768 5766 5764 5763 5761 5760 5759 5758
5892 5891 5889 5887 5884 5882 5880 5876 5872 5869 5865 5861 5857 5853 5849 5845 5841 5838 5834 5830 5826 5823 5819 5816 5812 5809 5805 5801 5797 5793 5789 5786 5782 5779 5776 5773 5771 5768 5766 5764 5762 5760 5759 5758
5892 5890 5889 5887 5885 5882 5880 5876 5874 5871 5869 5863 5859 5856 5852 5848 5845 5842 5837 5834 5830 5827 5824 5820 5816 5813 5809 5805 5801 5798 5794 5790 5786 5783 5780 5776 5774 5771 5768 5766 5763 5761 5759 5757
5891 5890 5888 5887 5885 5885 5880 5877 5875 5873 5868 5865 5861 5858 5855 5851 5848 5844 5841 5838 5834 5831 5827 5824 5820 5817 5813 5810 5806 5802 5798 5794 5790 5787 5783 5780 5777 5774 5770 5768 5765 5762 5760 5758
5890 5890 5888 5887 5887 5883 5880 5878 5875 5872 5869 5866 5863 5860 5857 5854 5851 5847 5844 5841 5838 5835 5831 5828 5824 5821 5817 5814 5810 5806 5802 5798 5795 5791 5787 5784 5780 5777 5773 5770 5767 5764 5761 5759
5889 5888 5887 5886 5884 5882 5880 5878 5875 5873 5870 5867 5865 5862 5859 5856 5853 5850 5847 5844 5841 5838 5834 5831 5828 5825 5821 5817 5814 5810 5807 5803 5799 5795 5791 5788 5784 5780 5777 5773 5770 5766 5763 5761
5887 5886 5885 5884 5883 5881 5880 5877 5875 5873 5871 5868 5866 5863 5860 5858 5855 5852 5849 5846 5844 5841 5837 5834 5831 5828 5825 5821 5817 5814 5810 5807 5803 5799 5795 5792 5788 5784 5780 5777 5773 5770 5766 5763
5885 5884 5884 5883 5882 5881 5879 5877 5875 5873 5871 5868 5866 5864 5861 5859 5856 5854 5851 5848 5846 5843 5840 5837 5834 5831 5827 5824 5821 5817 5814 5810 5807 5803 5799 5795 5792 5788 5784 5781 5777 5773 5770 5767